Terminal Aerodrome Forecast
Issued by NWS

Home | Current Version | Previous Version | Text Only | Print | Product List | Glossary Off
Versions: 1 2 3 4 5 6 7 8 9 10 11 12 13 14 15 16

000
FTUS43 KBIS 071700
TAFJMS
TAF
KJMS 071737Z 0718/0818 32016KT P6SM -SHRA SCT060 OVC100
     FM072000 32016G24KT P6SM VCTS SCT060CB BKN100
     FM080300 31010KT P6SM SCT080=

USA.gov is the U.S. government's official web portal to all federal, state and local government web resources and services.